TimeEDT,TemperatureF,Dew PointF,Humidity,Sea Level PressureIn,VisibilityMPH,Wind Direction,Wind SpeedMPH,Gust SpeedMPH,PrecipitationIn,Events,Conditions,WindDirDegrees,DateUTC
12:17 AM,27.7,17.2,65,30.22,10.0,NW,4.6,-,N/A,,Clear,320,2013-03-28 04:17:00
12:36 AM,27.3,16.7,64,30.22,10.0,NNW,5.8,-,N/A,,Clear,330,2013-03-28 04:36:00
12:57 AM,27.0,16.3,64,30.22,10.0,NW,5.8,-,N/A,,Clear,320,2013-03-28 04:57:00
1:16 AM,26.8,16.5,65,30.23,10.0,NW,5.8,-,N/A,,Clear,310,2013-03-28 05:16:00
1:37 AM,26.6,16.5,66,30.22,10.0,WNW,5.8,-,N/A,,Clear,290,2013-03-28 05:37:00
1:57 AM,26.6,16.3,65,30.22,10.0,NW,5.8,-,N/A,,Clear,310,2013-03-28 05:57:00
2:16 AM,26.1,15.8,65,30.22,10.0,WNW,5.8,-,N/A,,Clear,300,2013-03-28 06:16:00
2:37 AM,25.3,15.8,67,30.23,10.0,West,4.6,-,N/A,,Clear,270,2013-03-28 06:37:00
2:57 AM,24.4,15.6,69,30.22,10.0,West,4.6,-,N/A,,Clear,280,2013-03-28 06:57:00
3:16 AM,23.2,14.9,71,30.22,10.0,WNW,3.5,-,N/A,,Clear,290,2013-03-28 07:16:00
3:37 AM,22.8,14.7,71,30.22,10.0,WNW,3.5,-,N/A,,Clear,290,2013-03-28 07:37:00
3:56 AM,22.6,14.4,71,30.22,10.0,WNW,4.6,-,N/A,,Clear,290,2013-03-28 07:56:00
4:17 AM,21.7,14.2,73,30.22,10.0,WNW,3.5,-,N/A,,Clear,290,2013-03-28 08:17:00
4:37 AM,22.5,14.9,73,30.22,10.0,Calm,Calm,-,N/A,,Clear,0,2013-03-28 08:37:00
4:56 AM,23.5,15.3,71,30.22,10.0,Calm,Calm,-,N/A,,Clear,0,2013-03-28 08:56:00
5:17 AM,23.2,14.9,71,30.22,10.0,Calm,Calm,-,N/A,,Clear,0,2013-03-28 09:17:00
5:37 AM,22.3,14.5,72,30.22,10.0,Calm,Calm,-,N/A,,Clear,0,2013-03-28 09:37:00
5:56 AM,21.7,14.5,74,30.22,10.0,NNW,3.5,-,N/A,,Clear,330,2013-03-28 09:56:00
7:50 AM,21.2,14.0,74,30.24,10.0,NW,3.5,-,N/A,,Clear,320,2013-03-28 11:50:00
8:50 AM,23.0,14.0,68,30.24,10.0,Calm,Calm,-,N/A,,Clear,0,2013-03-28 12:50:00
9:50 AM,30.2,17.6,60,30.25,10.0,Calm,Calm,-,N/A,,Clear,0,2013-03-28 13:50:00
10:50 AM,35.6,19.4,52,30.25,10.0,NNE,5.8,-,N/A,,Clear,20,2013-03-28 14:50:00
11:50 AM,37.4,17.6,45,30.25,10.0,NNE,6.9,-,N/A,,Clear,30,2013-03-28 15:50:00
12:50 PM,39.2,15.8,39,30.25,10.0,NNE,11.5,-,N/A,,Clear,30,2013-03-28 16:50:00
1:50 PM,39.2,19.4,45,30.25,10.0,NE,12.7,-,N/A,,Clear,50,2013-03-28 17:50:00
2:50 PM,37.4,17.6,45,30.25,10.0,NNE,12.7,-,N/A,,Clear,20,2013-03-28 18:50:00
3:50 PM,37.4,17.6,45,30.24,10.0,NNE,11.5,-,N/A,,Clear,30,2013-03-28 19:50:00
4:50 PM,37.4,17.6,45,30.23,10.0,NE,11.5,-,N/A,,Clear,40,2013-03-28 20:50:00
5:50 PM,37.4,19.4,48,30.23,10.0,NNE,13.8,-,N/A,,Clear,20,2013-03-28 21:50:00
6:50 PM,35.6,19.4,52,30.24,10.0,NNE,8.1,-,N/A,,Clear,30,2013-03-28 22:50:00
7:50 PM,33.8,19.4,56,30.24,10.0,NNE,8.1,-,N/A,,Clear,30,2013-03-28 23:50:00
8:50 PM,32.0,19.4,60,30.25,10.0,Calm,Calm,-,N/A,,Clear,0,2013-03-29 00:50:00
9:45 PM,28.4,21.2,74,30.25,10.0,Calm,Calm,-,N/A,,Clear,0,2013-03-29 01:45:00
10:16 PM,27.5,19.2,71,30.25,10.0,Calm,Calm,-,N/A,,Clear,0,2013-03-29 02:16:00
10:37 PM,25.9,19.2,76,30.26,10.0,Calm,Calm,-,N/A,,Clear,0,2013-03-29 02:37:00
10:56 PM,26.2,19.0,74,30.25,10.0,Calm,Calm,-,N/A,,Clear,0,2013-03-29 02:56:00
11:17 PM,25.3,18.3,75,30.25,10.0,Calm,Calm,-,N/A,,Clear,0,2013-03-29 03:17:00
11:37 PM,25.5,19.0,76,30.25,10.0,Calm,Calm,-,N/A,,Clear,0,2013-03-29 03:37:00
11:56 PM,22.8,16.9,78,30.25,10.0,Calm,Calm,-,N/A,,Clear,0,2013-03-29 03:56:00